Location: Caltech
(34.1382°N, 118.1253°W)
Time: 18:09:43
(UTC-07:00)

RS-15 - Visible Passes

Search period start: 31 October 2014 00:00
Search period end: 09 November 2014 23:00
Orbit: 1899 x 2146 km, 64.8° (Epoch: 31 October)

Date Brightness Start Highest point End Pass type
(mag) Time Alt. Az. Time Alt. Az. Time Alt. Az.
31 Oct 9.9 02:12:57 10° N 02:13:46 10° N 02:14:35 10° N visible
31 Oct 9.7 04:24:34 10° NNW 04:32:42 22° NE 04:41:00 10° E visible
31 Oct 8.3 06:35:51 10° NNW 06:47:08 78° ENE 06:58:56 10° SSE visible
31 Oct 9.1 18:51:20 10° ESE 18:54:45 12° E 18:54:56 12° E visible
31 Oct 8.0 20:54:09 10° SSW 21:02:48 59° S 21:02:48 59° S visible
31 Oct 9.8 23:09:12 10° WSW 23:10:40 14° W 23:10:40 14° W visible
01 Nov 9.9 01:37:09 11° N 01:37:09 11° N 01:38:30 10° N visible
01 Nov 9.8 03:48:51 10° N 03:55:43 18° NNE 04:02:42 10° ENE visible
01 Nov 8.5 05:59:54 10° NNW 06:11:00 61° ENE 06:22:33 10° SE visible
01 Nov 7.8 20:18:39 10° S 20:29:17 56° ESE 20:29:22 56° ESE visible
01 Nov 9.2 22:31:55 10° WSW 22:37:14 28° W 22:37:14 28° W visible
02 Nov 10.0 01:02:29 10° N 01:02:29 10° N 01:02:46 10° N visible
02 Nov 9.9 02:13:08 10° N 02:18:33 14° NNE 02:24:01 10° NE visible
02 Nov 8.8 04:24:02 10° NNW 04:34:45 47° NE 04:45:50 10° SE visible
02 Nov 8.1 18:43:32 10° S 18:53:32 41° ESE 18:55:58 37° E visible
02 Nov 8.5 20:55:00 10° SW 21:03:50 47° WNW 21:03:50 47° WNW visible
03 Nov 9.9 01:37:25 10° N 01:41:12 12° NNE 01:45:00 10° NE visible
03 Nov 9.1 03:48:13 10° NNW 03:58:20 37° NE 04:08:46 10° ESE visible
03 Nov 8.5 18:08:55 10° SSE 18:17:53 30° ESE 18:22:34 22° ENE visible
03 Nov 8.0 20:18:25 10° SW 20:29:20 65° WNW 20:30:26 62° NNW visible
03 Nov 9.9 22:37:26 10° WNW 22:38:18 12° WNW 22:38:18 12° WNW visible
04 Nov 10.0 01:01:39 10° N 01:03:43 11° N 01:05:47 10° NNE visible
04 Nov 9.4 03:12:26 10° NNW 03:21:46 29° NE 03:31:19 10° E visible
04 Nov 8.1 05:24:02 10° NNW 05:35:19 80° WSW 05:47:07 10° SSE visible
04 Nov 8.8 17:35:02 10° SE 17:42:18 20° ESE 17:49:08 11° ENE visible
04 Nov 7.8 19:42:11 10° SSW 19:53:15 83° WNW 19:57:00 49° NNE visible
04 Nov 9.5 21:59:19 10° W 22:04:52 21° NW 22:04:52 21° NW visible
05 Nov 10.0 00:26:39 10° N 00:26:39 10° N 00:26:59 10° N visible
05 Nov 9.6 02:36:41 10° NNW 02:45:00 23° NE 02:53:29 10° E visible
05 Nov 8.1 04:48:00 10° NNW 04:59:19 80° ENE 05:11:08 10° SSE visible
05 Nov 7.7 19:06:16 10° SSW 19:17:17 77° ESE 19:23:31 31° NE visible
05 Nov 9.1 21:21:36 10° W 21:30:41 29° NW 21:31:22 29° NW visible
06 Nov 9.7 02:00:57 10° N 02:08:03 18° NNE 02:15:15 10° ENE visible
06 Nov 8.4 04:12:03 10° NNW 04:23:12 63° ENE 04:34:49 10° SE visible
06 Nov 7.9 18:30:43 10° S 18:41:25 58° ESE 18:49:55 18° NE visible
06 Nov 8.8 20:44:15 10° WSW 20:54:08 37° NW 20:57:47 31° NNW visible
07 Nov 9.8 01:25:55 11° N 01:30:54 15° NNE 01:36:37 10° NE visible
07 Nov 8.7 03:36:10 10° NNW 03:46:58 49° NE 03:58:09 10° SE visible
07 Nov 8.4 05:48:45 10° NW 05:59:10 45° WSW 06:10:03 10° S visible
07 Nov 8.2 17:55:33 10° S 18:05:39 43° ESE 18:15:36 10° NE visible
07 Nov 8.5 20:07:17 10° SW 20:17:45 48° NW 20:24:03 26° N visible
07 Nov 9.8 22:28:31 10° NW 22:31:53 14° NW 22:31:53 14° NW visible
08 Nov 9.9 00:51:54 12° N 00:53:34 12° NNE 00:57:39 10° NE visible
08 Nov 9.0 03:00:21 10° NNW 03:10:34 38° NE 03:21:08 10° ESE visible
08 Nov 8.1 05:12:24 10° NW 05:23:22 60° WSW 05:34:51 10° S visible
08 Nov 8.5 17:20:51 10° SSE 17:29:59 31° ESE 17:38:58 10° NE visible
08 Nov 8.2 19:30:39 10° SW 19:41:31 62° WNW 19:50:09 18° NNE visible
08 Nov 9.6 21:49:57 10° WNW 21:56:40 18° NNW 21:57:59 17° NNW visible
09 Nov 10.0 00:18:02 10° NNE 00:18:02 10° NNE 00:18:27 10° NNE visible
09 Nov 9.2 02:25:53 14° N 02:34:01 30° NE 02:43:45 10° ESE visible
09 Nov 8.0 04:36:13 10° NNW 04:47:29 78° WSW 04:59:16 10° SSE visible
09 Nov 7.9 18:54:22 10° SSW 19:05:25 80° WNW 19:16:06 11° NNE visible
09 Nov 9.5 21:11:46 10° W 21:19:43 22° NW 21:23:54 18° N visible
